Location: �A�n Sefra
(34.9681°N, 0.4346°E)
Time: 09:20:41
(UTC+00:00)

EO 1 Delta rocket - Pass Details

Date: 21 October 2019
Orbit: 698 x 1791 km, 95.4° (Epoch: 17 November)

Event Time Altitude Azimuth Distance (km) Brightness Sun altitude
Rises 18:42:48 0° 176° (S) 3,116 7.1 -18.4°
Reaches altitude 10° 18:45:04 10° 179° (S) 2,164 6.3 -18.8°
Maximum altitude 18:49:39 67° 262° (W) 759 4.1 -19.8°
Drops below altitude 10° 18:54:26 10° 346° (NNW) 2,266 6.6 -20.8°
Sets 18:56:52 0° 349° (NNW) 3,278 7.4 -21.3°
